Notices

What's New in latest Release from April 7th, 2021:

- Updated Glossary, including Speed of Maximum Gust, and Total Hourly Precipitation

- Updated national and regional climate services offices contacts and prices information

- Addition of station inventory lists for 1981-2010, 1971-2000, and 1961-1990 Normals.

If you haven't already, please take our survey and provide feedback about our website: https://eccc.sondage-survey.ca/f/LanguageSelection.aspx?s=442ca660-fcf1-47c0-95a9-59707d6fd709

Hourly Data Report for August 01, 2020

TORONTO CITY
ONTARIO
Current Station Operator: ECCC - MSC

43°40'00.000" N
79°24'00.000" W
112.50 m
6158355
71508
XTO

Download Data

Hourly Data (August 2020)
Hourly Data Report for August 1, 2020
TIME
LST
Temp Definition
°C
Dew Point Definition
°C
Rel Hum Definition
%
Precip. Amount Definition
mm

Wind Dir Definition
10's deg

Wind Spd Definition
km/h
Visibility Definition
km
Stn Press Definition
kPa
Hmdx Definition


Wind Chill Definition


Weather Definition


00:00 22.2 15.0 64 0.0       100.04 26   LegendNANA
01:00 21.7 15.1 66 0.0       100.01 26   LegendNANA
02:00 21.5 15.7 70 0.0       100.00 26   LegendNANA
03:00 20.9 15.1 70 0.0       99.98 25   LegendNANA
04:00 20.4 15.6 74 0.0       99.98 25   LegendNANA
05:00 21.1 15.6 71 0.0       100.00 25   LegendNANA
06:00 20.8 15.2 70 0.0       100.03 25   LegendNANA
07:00 21.8 15.7 68 0.0       100.06 26   LegendNANA
08:00 23.7 15.6 61 0.0       100.10 28   LegendNANA
09:00 24.6 16.0 59 0.0       100.13 29   LegendNANA
10:00 26.2 17.1 57 0.0       100.15 32   LegendNANA
11:00 27.0 12.4 40 0.0       100.12 29   LegendNANA
12:00 27.7 12.3 38 0.0       100.08 30   LegendNANA
13:00 28.6 11.4 34 0.0       100.04 31   LegendNANA
14:00 27.7 12.8 40 0.6       99.98 30   LegendNANA
15:00 27.5 13.2 41 0.0       99.93 30   LegendNANA
16:00 26.9 14.0 45 0.2       99.85 30   LegendNANA
17:00 26.6 14.0 46 0.0       99.82 30   LegendNANA
18:00 25.9 14.8 50 0.0       99.82 30   LegendNANA
19:00 24.9 17.9 65 0.0       99.83 31   LegendNANA
20:00 24.9 17.5 63 0.0       99.86 31   LegendNANA
21:00 25.7 15.8 54 0.0       99.86 30   LegendNANA
22:00 24.3 16.9 63 0.0       99.82 30   LegendNANA
23:00 24.6 17.6 65 0.0       99.76 30   LegendNANA

Notes on Data Quality.

Legend

  • E = Estimated
  • M = Missing
  • NA = Not Available*
  • [empty] = Indicates an unobserved value
Date modified: